"read_dt","SO2 (ppb)","flags","PMT voltage (V)","lamp voltage (V)","lamp intensity (Hz)","internal temp (C)","react chamber temp (C)","sample flow (l/min)","pres (mmHg)","SO2 bkg (ppb)","SO2 coefficient"
2014-04-14 00:00:00,2941E-2,5C000400,-0724,1014,10219,026.5,045.3,0.000,745.9,01.17,0.508
2014-04-14 00:01:00,2938E-2,5C000400,-0724,1014,10422,026.5,045.3,0.000,745.9,01.17,0.508
2014-04-14 00:02:00,2950E-2,5C000400,-0724,1014,10427,026.5,045.2,0.000,745.8,01.17,0.508
2014-04-14 00:03:00,2939E-2,5C000400,-0724,1015,10432,026.5,045.3,0.000,745.8,01.17,0.508
2014-04-14 00:04:00,2958E-2,5C000400,-0724,1013,10484,026.5,045.2,0.000,745.8,01.17,0.508
2014-04-14 00:05:00,2943E-2,5C000400,-0724,1015,10557,026.5,045.3,0.000,745.8,01.17,0.508
2014-04-14 00:06:00,2929E-2,5C000400,-0724,1014,10333,026.5,045.3,0.000,745.8,01.17,0.508
2014-04-14 00:07:00,2945E-2,5C000400,-0724,1014,10208,026.5,045.3,0.000,745.7,01.17,0.508
2014-04-14 00:08:00,2906E-2,5C000400,-0724,1013,10309,026.5,045.2,0.000,745.7,01.17,0.508
2014-04-14 00:09:00,2989E-2,5C000400,-0724,1013,10565,026.5,045.3,0.000,745.8,01.17,0.508
2014-04-14 00:10:00,2973E-2,5C000400,-0724,1013,10376,026.5,045.3,0.000,745.8,01.17,0.508
2014-04-14 00:11:00,2969E-2,5C000400,-0724,1013,10386,026.5,045.3,0.000,745.7,01.17,0.508
2014-04-14 00:12:00,2934E-2,5C000400,-0724,1013,10177,026.5,045.3,0.000,745.7,01.17,0.508
2014-04-14 00:13:00,2946E-2,5C000400,-0724,1013,10383,026.5,045.3,0.000,745.7,01.17,0.508
2014-04-14 00:14:00,2949E-2,5C000400,-0724,1013,10410,026.5,045.2,0.000,745.7,01.17,0.508
2014-04-14 00:15:00,2891E-2,5C000400,-0724,1014,10383,026.5,045.3,0.000,745.7,01.17,0.508
2014-04-14 00:16:00,2983E-2,5C000400,-0724,1013,10429,026.5,045.3,0.000,745.8,01.17,0.508
2014-04-14 00:17:00,2958E-2,5C000400,-0724,1012,10500,026.5,045.3,0.000,745.8,01.17,0.508
2014-04-14 00:18:00,2987E-2,5C000400,-0724,1014,10328,026.5,045.3,0.000,745.8,01.17,0.508
2014-04-14 00:19:00,2920E-2,5C000400,-0724,1012,10226,026.5,045.3,0.000,745.8,01.17,0.508
2014-04-14 00:20:00,2961E-2,5C000400,-0724,1013,10486,026.5,045.3,0.000,745.7,01.17,0.508
2014-04-14 00:21:00,2914E-2,5C000400,-0724,1013,10477,026.5,045.3,0.000,745.8,01.17,0.508
2014-04-14 00:22:00,2956E-2,5C000400,-0724,1012,10399,026.5,045.3,0.000,745.8,01.17,0.508
2014-04-14 00:23:00,2948E-2,5C000400,-0724,1013,10533,026.5,045.3,0.000,745.8,01.17,0.508
2014-04-14 00:24:00,2962E-2,5C000400,-0724,1013,10299,026.5,045.3,0.000,745.8,01.17,0.508
2014-04-14 00:25:00,2942E-2,5C000400,-0724,1014,10471,026.5,045.3,0.000,745.8,01.17,0.508
2014-04-14 00:26:00,2988E-2,5C000400,-0724,1013,10232,026.5,045.3,0.000,745.8,01.17,0.508
2014-04-14 00:27:00,2971E-2,5C000400,-0724,1013,10432,026.5,045.3,0.000,745.8,01.17,0.508
2014-04-14 00:28:00,2938E-2,5C000400,-0724,1013,10355,026.5,045.3,0.000,745.8,01.17,0.508
2014-04-14 00:29:00,2951E-2,5C000400,-0724,1014,10318,026.5,045.3,0.000,745.8,01.17,0.508
2014-04-14 00:30:00,2906E-2,5C000400,-0724,1013,10516,026.5,045.3,0.000,745.9,01.17,0.508
2014-04-14 00:31:00,2945E-2,5C000400,-0724,1013,10408,026.5,045.3,0.000,745.9,01.17,0.508
2014-04-14 00:32:00,2908E-2,5C000400,-0724,1012,10408,026.5,045.3,0.000,745.8,01.17,0.508
2014-04-14 00:33:00,2938E-2,5C000400,-0724,1013,10288,026.5,045.3,0.000,745.9,01.17,0.508
2014-04-14 00:34:00,2974E-2,5C000400,-0724,1013,10493,026.5,045.2,0.000,745.9,01.17,0.508
2014-04-14 00:35:00,2956E-2,5C000400,-0724,1014,10445,026.4,045.2,0.000,745.9,01.17,0.508
2014-04-14 00:36:00,2954E-2,5C000400,-0724,1015,10428,026.5,045.3,0.000,745.9,01.17,0.508
2014-04-14 00:37:00,2941E-2,5C000400,-0724,1013,10379,026.5,045.3,0.000,746.0,01.17,0.508
2014-04-14 00:38:00,2929E-2,5C000400,-0724,1013,10321,026.5,045.3,0.000,745.9,01.17,0.508
2014-04-14 00:39:00,2950E-2,5C000400,-0724,1013,10409,026.5,045.2,0.000,745.9,01.17,0.508
2014-04-14 00:40:00,2933E-2,5C000400,-0724,1013,10356,026.5,045.3,0.000,746.0,01.17,0.508
2014-04-14 00:41:00,2931E-2,5C000400,-0724,1014,10415,026.5,045.3,0.000,746.0,01.17,0.508
2014-04-14 00:42:00,2957E-2,5C000400,-0724,1013,10488,026.5,045.3,0.000,746.0,01.17,0.508
2014-04-14 00:43:00,2923E-2,5C000400,-0724,1013,10534,026.5,045.3,0.000,746.0,01.17,0.508
2014-04-14 00:44:00,2876E-2,5C000400,-0724,1013,10464,026.5,045.3,0.000,746.0,01.17,0.508
2014-04-14 00:45:00,2866E-2,5C000400,-0724,1013,10350,026.5,045.3,0.000,746.1,01.17,0.508
2014-04-14 00:46:00,2809E-2,5C000400,-0724,1014,10359,026.5,045.3,0.000,746.1,01.17,0.508
2014-04-14 00:47:00,2822E-2,5C000400,-0724,1013,10432,026.5,045.3,0.000,746.1,01.17,0.508
2014-04-14 00:48:00,2853E-2,5C000400,-0724,1012,10324,026.5,045.3,0.000,746.1,01.17,0.508
2014-04-14 00:49:00,2886E-2,5C000400,-0724,1013,10343,026.5,045.2,0.000,746.1,01.17,0.508
2014-04-14 00:50:00,2874E-2,5C000400,-0724,1013,10510,026.5,045.3,0.000,746.1,01.17,0.508
2014-04-14 00:51:00,2859E-2,5C000400,-0724,1014,10319,026.5,045.3,0.000,746.1,01.17,0.508
2014-04-14 00:52:00,2805E-2,5C000400,-0724,1014,10401,026.5,045.3,0.000,746.2,01.17,0.508
2014-04-14 00:53:00,2862E-2,5C000400,-0724,1014,10406,026.5,045.3,0.000,746.1,01.17,0.508
2014-04-14 00:54:00,2824E-2,5C000400,-0724,1014,10393,026.6,045.3,0.000,746.1,01.17,0.508
2014-04-14 00:55:00,2883E-2,5C000400,-0724,1014,10576,026.5,045.3,0.000,746.1,01.17,0.508
2014-04-14 00:56:00,2851E-2,5C000400,-0724,1014,10180,026.6,045.2,0.000,746.1,01.17,0.508
2014-04-14 00:57:00,2827E-2,5C000400,-0724,1014,10250,026.6,045.2,0.000,746.1,01.17,0.508
2014-04-14 00:58:00,2842E-2,5C000400,-0724,1014,10536,026.6,045.3,0.000,746.1,01.17,0.508
2014-04-14 00:59:00,2873E-2,5C000400,-0724,1013,10340,026.6,045.3,0.000,746.1,01.17,0.508
2014-04-14 01:00:00,2861E-2,5C000400,-0724,1011,10446,026.6,045.3,0.000,746.1,01.17,0.508
2014-04-14 01:01:00,2826E-2,5C000400,-0724,1013,10398,026.6,045.3,0.000,746.1,01.17,0.508
2014-04-14 01:02:00,2878E-2,5C000400,-0724,1014,10370,026.6,045.3,0.000,746.1,01.17,0.508
2014-04-14 01:03:00,2817E-2,5C000400,-0724,1013,10273,026.6,045.3,0.000,746.1,01.17,0.508
2014-04-14 01:04:00,2829E-2,5C000400,-0724,1014,10288,026.6,045.3,0.000,746.1,01.17,0.508
2014-04-14 01:05:00,2838E-2,5C000400,-0724,1013,10362,026.6,045.3,0.000,746.0,01.17,0.508
2014-04-14 01:06:00,2880E-2,5C000400,-0724,1013,10330,026.6,045.3,0.000,746.1,01.17,0.508
2014-04-14 01:07:00,2864E-2,5C000400,-0724,1013,10497,026.6,045.3,0.000,746.1,01.17,0.508
2014-04-14 01:08:00,2859E-2,5C000400,-0724,1014,10280,026.6,045.3,0.000,746.0,01.17,0.508
2014-04-14 01:09:00,2883E-2,5C000400,-0724,1014,10465,026.6,045.3,0.000,746.0,01.17,0.508
2014-04-14 01:10:00,2868E-2,5C000400,-0724,1015,10499,026.6,045.2,0.000,746.0,01.17,0.508
2014-04-14 01:11:00,2870E-2,5C000400,-0724,1014,10332,026.6,045.3,0.000,746.0,01.17,0.508
2014-04-14 01:12:00,2859E-2,5C000400,-0724,1013,10372,026.7,045.3,0.000,746.0,01.17,0.508
2014-04-14 01:13:00,2852E-2,5C000400,-0724,1014,10211,026.7,045.3,0.000,746.0,01.17,0.508
2014-04-14 01:14:00,2840E-2,5C000400,-0724,1014,10420,026.7,045.3,0.000,746.0,01.17,0.508
2014-04-14 01:15:00,2885E-2,5C000400,-0724,1014,10123,026.7,045.2,0.000,745.9,01.17,0.508
2014-04-14 01:16:00,2822E-2,5C000400,-0724,1014,10376,026.7,045.2,0.000,746.0,01.17,0.508
2014-04-14 01:17:00,2820E-2,5C000400,-0724,1013,10402,026.7,045.3,0.000,746.0,01.17,0.508
2014-04-14 01:18:00,2825E-2,5C000400,-0724,1013,10333,026.7,045.3,0.000,746.0,01.17,0.508
2014-04-14 01:19:00,2854E-2,5C000400,-0724,1013,10269,026.7,045.3,0.000,746.0,01.17,0.508
2014-04-14 01:20:00,2848E-2,5C000400,-0724,1014,10366,026.7,045.3,0.000,745.8,01.17,0.508
2014-04-14 01:21:00,2823E-2,5C000400,-0724,1014,10290,026.7,045.3,0.000,746.0,01.17,0.508
2014-04-14 01:22:00,2845E-2,5C000400,-0724,1014,10346,026.7,045.3,0.000,746.1,01.17,0.508
2014-04-14 01:23:00,2836E-2,5C000400,-0724,1013,10387,026.7,045.3,0.000,746.1,01.17,0.508
2014-04-14 01:24:00,2831E-2,5C000400,-0724,1015,10407,026.7,045.3,0.000,745.8,01.17,0.508
2014-04-14 01:25:00,2856E-2,5C000400,-0724,1015,10291,026.7,045.3,0.000,745.7,01.17,0.508
2014-04-14 01:26:00,2867E-2,5C000400,-0724,1014,10212,026.7,045.3,0.000,745.8,01.17,0.508
2014-04-14 01:27:00,2831E-2,5C000400,-0724,1013,10446,026.7,045.3,0.000,745.8,01.17,0.508
2014-04-14 01:28:00,2866E-2,5C000400,-0724,1014,10306,026.7,045.3,0.000,745.8,01.17,0.508
2014-04-14 01:29:00,2810E-2,5C000400,-0724,1014,10338,026.7,045.3,0.000,745.9,01.17,0.508
2014-04-14 01:30:00,2864E-2,5C000400,-0724,1013,10396,026.7,045.3,0.000,745.9,01.17,0.508
2014-04-14 01:31:00,2853E-2,5C000400,-0724,1013,10321,026.7,045.3,0.000,745.8,01.17,0.508
2014-04-14 01:32:00,2829E-2,5C000400,-0724,1015,10472,026.7,045.3,0.000,745.7,01.17,0.508
2014-04-14 01:33:00,2868E-2,5C000400,-0724,1014,10421,026.7,045.3,0.000,745.5,01.17,0.508
2014-04-14 01:34:00,2874E-2,5C000400,-0724,1015,10193,026.7,045.3,0.000,745.5,01.17,0.508
2014-04-14 01:35:00,2834E-2,5C000400,-0724,1015,10466,026.7,045.3,0.000,745.5,01.17,0.508
2014-04-14 01:36:00,2848E-2,5C000400,-0724,1016,10508,026.7,045.3,0.000,745.5,01.17,0.508
2014-04-14 01:37:00,2851E-2,5C000400,-0724,1016,10413,026.7,045.3,0.000,745.5,01.17,0.508
2014-04-14 01:38:00,2850E-2,5C000400,-0724,1015,10445,026.7,045.3,0.000,745.6,01.17,0.508
2014-04-14 01:39:00,2901E-2,5C000400,-0724,1014,10415,026.7,045.3,0.000,745.6,01.17,0.508
2014-04-14 01:40:00,2832E-2,5C000400,-0724,1014,10432,026.7,045.3,0.000,745.6,01.17,0.508
2014-04-14 01:41:00,2817E-2,5C000400,-0724,1015,10378,026.7,045.3,0.000,745.6,01.17,0.508
2014-04-14 01:42:00,2819E-2,5C000400,-0724,1015,10387,026.7,045.3,0.000,745.6,01.17,0.508
2014-04-14 01:43:00,2887E-2,5C000400,-0724,1014,10272,026.7,045.3,0.000,745.7,01.17,0.508
2014-04-14 01:44:00,2860E-2,5C000400,-0724,1014,10398,026.7,045.3,0.000,745.6,01.17,0.508
2014-04-14 01:45:00,2829E-2,5C000400,-0724,1014,10377,026.7,045.3,0.000,745.6,01.17,0.508
2014-04-14 01:46:00,2828E-2,5C000400,-0724,1015,10319,026.7,045.3,0.000,745.7,01.17,0.508
2014-04-14 01:47:00,2860E-2,5C000400,-0724,1015,10493,026.7,045.3,0.000,745.6,01.17,0.508
2014-04-14 01:48:00,2854E-2,5C000400,-0724,1014,10453,026.7,045.3,0.000,745.6,01.17,0.508
2014-04-14 01:49:00,2837E-2,5C000400,-0724,1014,10324,026.7,045.3,0.000,745.6,01.17,0.508
2014-04-14 01:50:00,2885E-2,5C000400,-0724,1015,10348,026.7,045.2,0.000,745.5,01.17,0.508
2014-04-14 01:51:00,2864E-2,5C000400,-0724,1015,10370,026.7,045.3,0.000,745.5,01.17,0.508
2014-04-14 01:52:00,2873E-2,5C000400,-0724,1013,10321,026.7,045.3,0.000,745.6,01.17,0.508
2014-04-14 01:53:00,2857E-2,5C000400,-0724,1014,10420,026.7,045.3,0.000,745.4,01.17,0.508
2014-04-14 01:54:00,2840E-2,5C000400,-0724,1013,10451,026.7,045.3,0.000,745.4,01.17,0.508
2014-04-14 01:55:00,2859E-2,5C000400,-0724,1014,10408,026.7,045.3,0.000,745.4,01.17,0.508
2014-04-14 01:56:00,2894E-2,5C000400,-0724,1014,10381,026.7,045.3,0.000,745.3,01.17,0.508
2014-04-14 01:57:00,2893E-2,5C000400,-0724,1013,10413,026.7,045.3,0.000,745.3,01.17,0.508
2014-04-14 01:58:00,2854E-2,5C000400,-0724,1014,10364,026.7,045.3,0.000,745.3,01.17,0.508
2014-04-14 01:59:00,2852E-2,5C000400,-0724,1012,10379,026.7,045.3,0.000,745.2,01.17,0.508
2014-04-14 02:00:00,2844E-2,5C000400,-0724,1013,10454,026.7,045.3,0.000,745.2,01.17,0.508
2014-04-14 02:01:00,2882E-2,5C000400,-0724,1013,10412,026.7,045.3,0.000,745.2,01.17,0.508
2014-04-14 02:02:00,2846E-2,5C000400,-0724,1013,10471,026.7,045.3,0.000,745.1,01.17,0.508
2014-04-14 02:03:00,2859E-2,5C000400,-0724,1013,10197,026.6,045.3,0.000,745.2,01.17,0.508
2014-04-14 02:04:00,2842E-2,5C000400,-0724,1012,10422,026.6,045.3,0.000,745.1,01.17,0.508
2014-04-14 02:05:00,2866E-2,5C000400,-0724,1012,10473,026.6,045.3,0.000,745.1,01.17,0.508
2014-04-14 02:06:00,2872E-2,5C000400,-0724,1012,10380,026.7,045.3,0.000,745.1,01.17,0.508
2014-04-14 02:07:00,2859E-2,5C000400,-0724,1012,10380,026.7,045.3,0.000,745.0,01.17,0.508
2014-04-14 02:08:00,2826E-2,5C000400,-0724,1013,10349,026.7,045.3,0.000,745.1,01.17,0.508
2014-04-14 02:09:00,2878E-2,5C000400,-0724,1012,10285,026.6,045.3,0.000,745.1,01.17,0.508
2014-04-14 02:10:00,2825E-2,5C000400,-0724,1012,10413,026.6,045.3,0.000,745.0,01.17,0.508
2014-04-14 02:11:00,2832E-2,5C000400,-0724,1013,10470,026.6,045.3,0.000,745.0,01.17,0.508
2014-04-14 02:12:00,2889E-2,5C000400,-0724,1012,10285,026.6,045.3,0.000,745.0,01.17,0.508
2014-04-14 02:13:00,2839E-2,5C000400,-0724,1014,10232,026.6,045.3,0.000,744.9,01.17,0.508
2014-04-14 02:14:00,2902E-2,5C000400,-0724,1013,10252,026.6,045.3,0.000,745.0,01.17,0.508
2014-04-14 02:15:00,2871E-2,5C000400,-0724,1012,10138,026.6,045.2,0.000,745.0,01.17,0.508
2014-04-14 02:16:00,2861E-2,5C000400,-0724,1012,10453,026.6,045.3,0.000,745.0,01.17,0.508
2014-04-14 02:17:00,2889E-2,5C000400,-0724,1013,10231,026.6,045.3,0.000,745.0,01.17,0.508
2014-04-14 02:18:00,2854E-2,5C000400,-0724,1012,10359,026.6,045.3,0.000,745.0,01.17,0.508
2014-04-14 02:19:00,2872E-2,5C000400,-0724,1012,10376,026.6,045.3,0.000,744.9,01.17,0.508
2014-04-14 02:20:00,2900E-2,5C000400,-0724,1014,10532,026.6,045.3,0.000,744.9,01.17,0.508
2014-04-14 02:21:00,2892E-2,5C000400,-0724,1012,10223,026.5,045.3,0.000,745.0,01.17,0.508
2014-04-14 02:22:00,2901E-2,5C000400,-0724,1011,10406,026.6,045.3,0.000,744.9,01.17,0.508
2014-04-14 02:23:00,2870E-2,5C000400,-0724,1013,10517,026.5,045.3,0.000,744.8,01.17,0.508
2014-04-14 02:24:00,2867E-2,5C000400,-0724,1013,10388,026.5,045.3,0.000,744.9,01.17,0.508
2014-04-14 02:25:00,2883E-2,5C000400,-0724,1012,10338,026.5,045.3,0.000,744.9,01.17,0.508
2014-04-14 02:26:00,2859E-2,5C000400,-0724,1013,10303,026.5,045.3,0.000,744.8,01.17,0.508
2014-04-14 02:27:00,2902E-2,5C000400,-0724,1013,10442,026.5,045.3,0.000,744.8,01.17,0.508
2014-04-14 02:28:00,2839E-2,5C000400,-0724,1012,10509,026.5,045.3,0.000,744.8,01.17,0.508
2014-04-14 02:29:00,2845E-2,5C000400,-0724,1013,10358,026.5,045.3,0.000,744.8,01.17,0.508
2014-04-14 02:30:00,2894E-2,5C000400,-0724,1012,10450,026.5,045.3,0.000,744.8,01.17,0.508
2014-04-14 02:31:00,2874E-2,5C000400,-0724,1013,10356,026.5,045.3,0.000,744.8,01.17,0.508
2014-04-14 02:32:00,2849E-2,5C000400,-0724,1013,10464,026.5,045.3,0.000,744.8,01.17,0.508
2014-04-14 02:33:00,2820E-2,5C000400,-0724,1012,10501,026.5,045.3,0.000,744.7,01.17,0.508
2014-04-14 02:34:00,2885E-2,5C000400,-0724,1013,10310,026.5,045.2,0.000,744.8,01.17,0.508
2014-04-14 02:35:00,2878E-2,5C000400,-0724,1013,10446,026.5,045.3,0.000,744.8,01.17,0.508
2014-04-14 02:36:00,2903E-2,5C000400,-0724,1013,10212,026.5,045.3,0.000,744.8,01.17,0.508
2014-04-14 02:37:00,2914E-2,5C000400,-0724,1013,10463,026.5,045.2,0.000,744.9,01.17,0.508
2014-04-14 02:38:00,2832E-2,5C000400,-0724,1006,10470,026.5,045.3,0.000,744.9,01.17,0.508
2014-04-14 02:39:00,2800E-2,5C000400,-0724,1005,10466,026.5,045.3,0.000,744.9,01.17,0.508
2014-04-14 02:40:00,2820E-2,5C000400,-0724,1005,10473,026.5,045.3,0.000,744.9,01.17,0.508
2014-04-14 02:41:00,2841E-2,5C000400,-0724,1005,10479,026.5,045.3,0.000,745.0,01.17,0.508
2014-04-14 02:42:00,2826E-2,5C000400,-0724,1006,10503,026.4,045.3,0.000,745.0,01.17,0.508
2014-04-14 02:43:00,2770E-2,5C000400,-0724,1006,10474,026.4,045.3,0.000,745.0,01.17,0.508
2014-04-14 02:44:00,2795E-2,5C000400,-0724,1006,10480,026.4,045.3,0.000,745.0,01.17,0.508
2014-04-14 02:45:00,2766E-2,5C000400,-0724,1005,10260,026.4,045.3,0.000,745.0,01.17,0.508
2014-04-14 02:46:00,2786E-2,5C000400,-0724,1007,10427,026.4,045.2,0.000,745.0,01.17,0.508
2014-04-14 02:47:00,2779E-2,5C000400,-0724,1004,10510,026.4,045.3,0.000,745.1,01.17,0.508
2014-04-14 02:48:00,2771E-2,5C000400,-0724,1005,10418,026.4,045.3,0.000,745.1,01.17,0.508
2014-04-14 02:49:00,2794E-2,5C000400,-0724,1006,10552,026.4,045.3,0.000,745.1,01.17,0.508
2014-04-14 02:50:00,2780E-2,5C000400,-0724,1006,10414,026.4,045.3,0.000,745.1,01.17,0.508
2014-04-14 02:51:00,2765E-2,5C000400,-0724,1006,10507,026.4,045.3,0.000,745.2,01.17,0.508
2014-04-14 02:52:00,2848E-2,5C000400,-0724,1007,10576,026.4,045.3,0.000,745.2,01.17,0.508
2014-04-14 02:53:00,2807E-2,5C000400,-0724,1008,10475,026.4,045.3,0.000,745.2,01.17,0.508
2014-04-14 02:54:00,2811E-2,5C000400,-0724,1006,10483,026.4,045.2,0.000,745.3,01.17,0.508
2014-04-14 02:55:00,2772E-2,5C000400,-0724,1005,10571,026.4,045.3,0.000,745.3,01.17,0.508
2014-04-14 02:56:00,2782E-2,5C000400,-0724,1006,10067,026.4,045.3,0.000,745.3,01.17,0.508
2014-04-14 02:57:00,2826E-2,5C000400,-0724,1007,10489,026.4,045.3,0.000,745.3,01.17,0.508
2014-04-14 02:58:00,2811E-2,5C000400,-0724,1007,10438,026.4,045.3,0.000,745.4,01.17,0.508
2014-04-14 02:59:00,2839E-2,5C000400,-0724,1005,10488,026.4,045.3,0.000,745.4,01.17,0.508
2014-04-14 03:00:00,2842E-2,5C000400,-0724,1006,10449,026.4,045.3,0.000,745.3,01.17,0.508
2014-04-14 03:01:00,2825E-2,5C000400,-0724,1006,10443,026.4,045.3,0.000,745.4,01.17,0.508
2014-04-14 03:02:00,2864E-2,5C000400,-0724,1007,10474,026.4,045.3,0.000,745.3,01.17,0.508
2014-04-14 03:03:00,2804E-2,5C000400,-0724,1007,10479,026.4,045.3,0.000,745.3,01.17,0.508
2014-04-14 03:04:00,2850E-2,5C000400,-0724,1006,10475,026.5,045.3,0.000,745.3,01.17,0.508
2014-04-14 03:05:00,2798E-2,5C000400,-0724,1007,10288,026.4,045.3,0.000,745.3,01.17,0.508
2014-04-14 03:06:00,2843E-2,5C000400,-0724,1006,10474,026.4,045.2,0.000,745.3,01.17,0.508
2014-04-14 03:07:00,2825E-2,5C000400,-0724,1006,10458,026.4,045.3,0.000,745.3,01.17,0.508
2014-04-14 03:08:00,2835E-2,5C000400,-0724,1006,10514,026.5,045.3,0.000,745.4,01.17,0.508
2014-04-14 03:09:00,2855E-2,5C000400,-0724,1006,10426,026.4,045.3,0.000,745.3,01.17,0.508
2014-04-14 03:10:00,2880E-2,5C000400,-0724,1006,10380,026.5,045.2,0.000,745.3,01.17,0.508
2014-04-14 03:11:00,2841E-2,5C000400,-0724,1006,10419,026.5,045.2,0.000,745.4,01.17,0.508
2014-04-14 03:12:00,2839E-2,5C000400,-0724,1006,10441,026.5,045.2,0.000,745.4,01.17,0.508
2014-04-14 03:13:00,2820E-2,5C000400,-0724,1008,10470,026.5,045.2,0.000,745.4,01.17,0.508
2014-04-14 03:14:00,2860E-2,5C000400,-0724,1007,10436,026.5,045.3,0.000,745.4,01.17,0.508
2014-04-14 03:15:00,2842E-2,5C000400,-0724,1006,10448,026.5,045.3,0.000,745.4,01.17,0.508
2014-04-14 03:16:00,2857E-2,5C000400,-0724,1006,10556,026.5,045.3,0.000,745.4,01.17,0.508
2014-04-14 03:17:00,2874E-2,5C000400,-0724,1007,10515,026.5,045.3,0.000,745.5,01.17,0.508
2014-04-14 03:18:00,2804E-2,5C000400,-0724,1006,10353,026.5,045.3,0.000,745.5,01.17,0.508
2014-04-14 03:19:00,2829E-2,5C000400,-0724,1006,10421,026.5,045.3,0.000,745.4,01.17,0.508
2014-04-14 03:20:00,2830E-2,5C000400,-0724,1006,10354,026.5,045.3,0.000,745.5,01.17,0.508
2014-04-14 03:21:00,2864E-2,5C000400,-0724,1006,10415,026.5,045.3,0.000,745.5,01.17,0.508
2014-04-14 03:22:00,2868E-2,5C000400,-0724,1006,10381,026.5,045.2,0.000,745.5,01.17,0.508
2014-04-14 03:23:00,2866E-2,5C000400,-0724,1007,10557,026.5,045.3,0.000,745.5,01.17,0.508
2014-04-14 03:24:00,2873E-2,5C000400,-0724,1006,10389,026.5,045.3,0.000,745.6,01.17,0.508
2014-04-14 03:25:00,2850E-2,5C000400,-0724,1007,10295,026.5,045.3,0.000,745.6,01.17,0.508
2014-04-14 03:26:00,2863E-2,5C000400,-0724,1007,10361,026.6,045.3,0.000,745.6,01.17,0.508
2014-04-14 03:27:00,2868E-2,5C000400,-0724,1008,10261,026.5,045.3,0.000,745.6,01.17,0.508
2014-04-14 03:28:00,2878E-2,5C000400,-0724,1007,10414,026.5,045.3,0.000,745.6,01.17,0.508
2014-04-14 03:29:00,2848E-2,5C000400,-0724,1008,10485,026.6,045.3,0.000,745.6,01.17,0.508
2014-04-14 03:30:00,2878E-2,5C000400,-0724,1007,10583,026.6,045.3,0.000,745.6,01.17,0.508
2014-04-14 03:31:00,2831E-2,5C000400,-0724,1008,10462,026.5,045.3,0.000,745.6,01.17,0.508
2014-04-14 03:32:00,2871E-2,5C000400,-0724,1007,10522,026.6,045.2,0.000,745.6,01.17,0.508
2014-04-14 03:33:00,2883E-2,5C000400,-0724,1008,10337,026.6,045.3,0.000,745.6,01.17,0.508
2014-04-14 03:34:00,2885E-2,5C000400,-0724,1007,10417,026.6,045.3,0.000,745.6,01.17,0.508
2014-04-14 03:35:00,2884E-2,5C000400,-0724,1007,10339,026.6,045.3,0.000,745.6,01.17,0.508
2014-04-14 03:36:00,2834E-2,5C000400,-0724,1006,10430,026.6,045.3,0.000,745.6,01.17,0.508
2014-04-14 03:37:00,2878E-2,5C000400,-0724,1007,10474,026.6,045.3,0.000,745.6,01.17,0.508
2014-04-14 03:38:00,2855E-2,5C000400,-0724,1007,10487,026.6,045.3,0.000,745.6,01.17,0.508
2014-04-14 03:39:00,2859E-2,5C000400,-0724,1007,10439,026.6,045.3,0.000,745.6,01.17,0.508
2014-04-14 03:40:00,2913E-2,5C000400,-0724,1006,10397,026.6,045.3,0.000,745.6,01.17,0.508
2014-04-14 03:41:00,2912E-2,5C000400,-0724,1008,10591,026.6,045.3,0.000,745.6,01.17,0.508
2014-04-14 03:42:00,2866E-2,5C000400,-0724,1006,10498,026.6,045.3,0.000,745.6,01.17,0.508
2014-04-14 03:43:00,2928E-2,5C000400,-0724,1007,10461,026.6,045.3,0.000,745.5,01.17,0.508
2014-04-14 03:44:00,2875E-2,5C000400,-0724,1008,10452,026.6,045.3,0.000,745.5,01.17,0.508
2014-04-14 03:45:00,2846E-2,5C000400,-0724,1006,10500,026.6,045.3,0.000,745.6,01.17,0.508
2014-04-14 03:46:00,2888E-2,5C000400,-0724,1007,10364,026.6,045.3,0.000,745.5,01.17,0.508
2014-04-14 03:47:00,2875E-2,5C000400,-0724,1006,10388,026.7,045.2,0.000,745.4,01.17,0.508
2014-04-14 03:48:00,2860E-2,5C000400,-0724,1006,10483,026.7,045.2,0.000,745.4,01.17,0.508
2014-04-14 03:49:00,2882E-2,5C000400,-0724,1007,10462,026.7,045.3,0.000,745.5,01.17,0.508
2014-04-14 03:50:00,2871E-2,5C000400,-0724,1008,10409,026.7,045.2,0.000,745.5,01.17,0.508
2014-04-14 03:51:00,2898E-2,5C000400,-0724,1007,10367,026.7,045.3,0.000,745.5,01.17,0.508
2014-04-14 03:52:00,2839E-2,5C000400,-0724,1007,10515,026.7,045.3,0.000,745.5,01.17,0.508
2014-04-14 03:53:00,2898E-2,5C000400,-0724,1007,10588,026.7,045.3,0.000,745.5,01.17,0.508
2014-04-14 03:54:00,2914E-2,5C000400,-0724,1007,10364,026.7,045.3,0.000,745.5,01.17,0.508
2014-04-14 03:55:00,2849E-2,5C000400,-0724,1007,10484,026.7,045.3,0.000,745.5,01.17,0.508
2014-04-14 03:56:00,2872E-2,5C000400,-0724,1007,10442,026.7,045.3,0.000,745.5,01.17,0.508
2014-04-14 03:57:00,2854E-2,5C000400,-0724,1007,10574,026.7,045.3,0.000,745.5,01.17,0.508
2014-04-14 03:58:00,2897E-2,5C000400,-0724,1007,10616,026.7,045.3,0.000,745.6,01.17,0.508
2014-04-14 03:59:00,2849E-2,5C000400,-0724,1006,10517,026.7,045.3,0.000,745.5,01.17,0.508
2014-04-14 04:00:00,2791E-2,5C000400,-0724,1007,10546,026.7,045.3,0.000,745.5,01.17,0.508
2014-04-14 04:01:00,2897E-2,5C000400,-0724,1007,10481,026.7,045.3,0.000,745.6,01.17,0.508
2014-04-14 04:02:00,2882E-2,5C000400,-0724,1008,10588,026.7,045.3,0.000,745.6,01.17,0.508
2014-04-14 04:03:00,2911E-2,5C000400,-0724,1008,10389,026.7,045.3,0.000,745.5,01.17,0.508
2014-04-14 04:04:00,2892E-2,5C000400,-0724,1007,10470,026.8,045.3,0.000,745.6,01.17,0.508
2014-04-14 04:05:00,2864E-2,5C000400,-0724,1008,10412,026.7,045.3,0.000,745.6,01.17,0.508
2014-04-14 04:06:00,2879E-2,5C000400,-0724,1008,10214,026.7,045.3,0.000,745.6,01.17,0.508
2014-04-14 04:07:00,2853E-2,5C000400,-0724,1009,10438,026.7,045.3,0.000,745.6,01.17,0.508
2014-04-14 04:08:00,2859E-2,5C000400,-0724,1007,10464,026.7,045.3,0.000,745.5,01.17,0.508
2014-04-14 04:09:00,2919E-2,5C000400,-0724,1008,10441,026.7,045.3,0.000,745.6,01.17,0.508
2014-04-14 04:10:00,2854E-2,5C000400,-0724,1007,10205,026.7,045.3,0.000,745.5,01.17,0.508
2014-04-14 04:11:00,2873E-2,5C000400,-0724,1008,10427,026.7,045.3,0.000,745.5,01.17,0.508
2014-04-14 04:12:00,2875E-2,5C000400,-0724,1008,10467,026.7,045.3,0.000,745.5,01.17,0.508
2014-04-14 04:13:00,2888E-2,5C000400,-0724,1008,10502,026.7,045.3,0.000,745.5,01.17,0.508
2014-04-14 04:14:00,2895E-2,5C000400,-0724,1007,10442,026.7,045.3,0.000,745.4,01.17,0.508
2014-04-14 04:15:00,2840E-2,5C000400,-0724,1008,10407,026.7,045.3,0.000,745.5,01.17,0.508
2014-04-14 04:16:00,2887E-2,5C000400,-0724,1009,10377,026.8,045.3,0.000,745.5,01.17,0.508
2014-04-14 04:17:00,2856E-2,5C000400,-0724,1007,10439,026.7,045.3,0.000,745.5,01.17,0.508
2014-04-14 04:18:00,2901E-2,5C000400,-0724,1007,10400,026.8,045.3,0.000,745.5,01.17,0.508
2014-04-14 04:19:00,2858E-2,5C000400,-0724,1007,10440,026.8,045.3,0.000,745.6,01.17,0.508
2014-04-14 04:20:00,2870E-2,5C000400,-0724,1008,10452,026.8,045.3,0.000,745.6,01.17,0.508